Regional Weather Roundup
Issued by NWS Little Rock, AR

Home | Current Version | Previous Version | Graphics & Text | Print | Product List | Glossary On
Versions: 1 2 3 4 5 6 7 8 9 10 11 12 13 14 15 16 17 18 19 20 21 22 23 24 25 26 27 28 29 30 31 32 33 34 35 36 37 38 39 40 41 42 43 44 45 46 47 48 49 50
000
ASUS44 KLZK 291905
RWRLZK

WEATHER ROUNDUP FOR ARKANSAS
NATIONAL WEATHER SERVICE LITTLE ROCK AR
200 PM CDT TUE JUL 29 2014

NOTE: "FAIR" INDICATES FEW OR NO CLOUDS BELOW 12,000 FEET WITH NO
SIGNIFICANT WEATHER AND/OR OBSTRUCTIONS TO VISIBILITY.

ARZ001-003-010-029-292000-
NORTHWEST ARKANSAS

CITY           SKY/WX    TMP DP  RH WIND       PRES   REMARKS
FAYETTEVILLE   MOSUNNY   82  58  43 W8        30.16F
FORT SMITH     SUNNY     87  60  40 MISG      30.12F HX  87
HARRISON       SUNNY     79  54  41 SE6       30.18S
BENTONVILLE    MOSUNNY   81  57  44 NW9       30.18F
ROGERS         MOSUNNY   81  57  43 NW9       30.18F
SILOAM SPGS    SUNNY     81  57  44 NW5       30.18S
HIGHFILL       MOSUNNY   85  59  41 N9        30.16F
SPRINGDALE     MOSUNNY   81  57  44 NW8       30.18F
$$

ARZ004-005-016-292000-
NORTH CENTRAL ARKANSAS

CITY           SKY/WX    TMP DP  RH WIND       PRES   REMARKS
BATESVILLE     SUNNY     81  55  41 N3        30.14F
FLIPPIN        SUNNY     81  52  36 E3        30.16S
MTN HOME       MOSUNNY   79  57  46 S3        30.15F
$$

ARZ040-041-292000-
WEST CENTRAL ARKANSAS

CITY           SKY/WX    TMP DP  RH WIND       PRES   REMARKS
MENA           SUNNY     84  64  51 CALM      30.15F HX  86
MOUNT IDA      MOSUNNY   81  62  52 CALM      30.12F
$$

ARZ009-017-025-026-028-292000-
NORTHEAST ARKANSAS

CITY           SKY/WX    TMP DP  RH WIND       PRES   REMARKS
CORNING          N/A     77  55  47 E6        30.14F
JONESBORO      PTSUNNY   78  58  49 NE8       30.13F
NEWPORT        MOSUNNY   79  57  46 E8        30.15F
WALNUT RIDGE   SUNNY     79  55  44 E5        30.14F
BLYTHEVILLE    MOSUNNY   79  56  45 MISG      30.13F
NW BLYTHEVILLE MOSUNNY   77  54  44 N12       30.13F
$$

ARZ022-023-033-042-044-292000-
CENTRAL ARKANSAS

CITY           SKY/WX    TMP DP  RH WIND       PRES   REMARKS
LITTLE ROCK    MOSUNNY   83  57  41 E3        30.13F
N LITTLE ROCK  MOSUNNY   81  61  50 NE6       30.13F
JACKSONVILLE   SUNNY     82  58  44 N6        30.14S
SEARCY         SUNNY     81  58  45 N9        30.14F
HOT SPRINGS    PTSUNNY   81  63  54 S7        30.13F
RUSSELLVILLE   SUNNY     83  61  47 VRB6      30.13F
CLINTON        FAIR      82  59  44 NW3       30.14F
$$

ARZ036-292000-
EAST ARKANSAS

CITY           SKY/WX    TMP DP  RH WIND       PRES   REMARKS
WEST MEMPHIS   SUNNY     79  57  46 VRB5      30.12F
$$

ARZ050-053-066-070-073-292000-
SOUTHWEST ARKANSAS

CITY           SKY/WX    TMP DP  RH WIND       PRES   REMARKS
ARKADELPHIA    FAIR      84  67  56 E5        30.12F HX  86
CAMDEN         MOSUNNY   86  63  45 N7        30.11F HX  87
TEXARKANA      SUNNY     88  64  44 NW7       30.12S HX  89
EL DORADO      MOSUNNY   86  65  49 VRB6      30.11F HX  88
DE QUEEN       SUNNY     87  64  46 NE3       30.10F HX  88
$$

ARZ056-057-069-292000-
SOUTHEAST ARKANSAS

CITY           SKY/WX    TMP DP  RH WIND       PRES   REMARKS
PINE BLUFF     SUNNY     83  59  44 NE9       30.13F
STUTTGART      SUNNY     81  61  50 NE6       30.14F
MONTICELLO     MOSUNNY   83  63  50 NE9       30.11F

$$




USA.gov is the U.S. government's official web portal to all federal, state and local government web resources and services.